When you browse on this site, cookies collect data to enhance your experience and personalize the content and advertising you see.
Visit our Privacy Policy to learn more. By continuing to use the site, you agree to this use of cookies and data.
  • In Lithuania
  • List of Countries
  • For 7 days
  • Water Temperature
  • Weather Map
  • Weather Widgets
  • user-avatar
    Login

    Hourly Weather Igls

    Today, 7 December, Saturday

    Time Temperature Precipitation Wind Pressure Humidity
    00:00 +3°C° 0 mm 1 mps 684 mmHg 48%
    01:00 +3°C° 0 mm 1 mps 684 mmHg 48%
    02:00 +3°C° 0 mm 1 mps 683 mmHg 50%
    03:00 +4°C° 0 mm 1 mps 683 mmHg 52%
    04:00 +4°C° 0 mm 1 mps 683 mmHg 53%
    05:00 +4°C° 0 mm 1 mps 683 mmHg 55%
    06:00 +4°C° 0 mm 1 mps 683 mmHg 56%
    07:00 +4°C° 0 mm 1 mps 683 mmHg 57%
    08:00 +4°C° 0.1 mm 1 mps 684 mmHg 63%
    09:00 +5°C° 0.1 mm 1 mps 684 mmHg 68%
    10:00 +6°C° 0.1 mm 1 mps 684 mmHg 74%
    11:00 +6°C° 0.2 mm 1 mps 684 mmHg 77%
    12:00 +6°C° 0.2 mm 1 mps 684 mmHg 80%
    13:00 +7°C° 0.2 mm 1 mps 684 mmHg 83%
    14:00 +6°C° 0 mm 1 mps 684 mmHg 87%
    15:00 +5°C° 0 mm 1 mps 684 mmHg 91%
    16:00 +4°C° 0 mm 1 mps 684 mmHg 95%
    17:00 +4°C° 0 mm 1 mps 684 mmHg 94%
    18:00 +4°C° 0 mm 1 mps 685 mmHg 93%
    19:00 +4°C° 0 mm 1 mps 685 mmHg 92%
    20:00 +4°C° 0 mm 1 mps 685 mmHg 91%
    21:00 +3°C° 0 mm 1 mps 685 mmHg 90%
    22:00 +3°C° 0 mm 1 mps 685 mmHg 88%
    23:00 +3°C° 0 mm 1 mps 685 mmHg 85%

    Tomorrow, 8 December, Sunday

    Time Temperature Precipitation Wind Pressure Humidity
    00:00 +2°C° 0 mm 1 mps 685 mmHg 81%
    01:00 +2°C° 0 mm 1 mps 685 mmHg 77%
    02:00 +2°C° 0 mm 1 mps 684 mmHg 74%
    03:00 +2°C° 0 mm 1 mps 684 mmHg 70%
    04:00 +2°C° 0 mm 1 mps 684 mmHg 66%
    05:00 +2°C° 0 mm 1 mps 684 mmHg 63%
    06:00 +2°C° 0 mm 1 mps 684 mmHg 61%
    07:00 +2°C° 0 mm 1 mps 684 mmHg 58%
    08:00 +4°C° 0 mm 1 mps 684 mmHg 58%
    09:00 +5°C° 0 mm 1 mps 684 mmHg 57%
    10:00 +6°C° 0 mm 1 mps 684 mmHg 57%
    11:00 +7°C° 0 mm 1 mps 683 mmHg 59%
    12:00 +8°C° 0 mm 1 mps 683 mmHg 61%
    13:00 +8°C° 0 mm 1 mps 682 mmHg 63%
    14:00 +6°C° 0 mm 2 mps 682 mmHg 64%
    15:00 +5°C° 0 mm 2 mps 681 mmHg 65%
    16:00 +4°C° 0 mm 2 mps 681 mmHg 67%
    17:00 +4°C° 0 mm 2 mps 681 mmHg 66%
    18:00 +3°C° 0 mm 2 mps 680 mmHg 65%
    19:00 +3°C° 0 mm 2 mps 680 mmHg 65%
    20:00 +3°C° 0 mm 2 mps 680 mmHg 65%
    21:00 +3°C° 0 mm 2 mps 680 mmHg 66%
    22:00 +3°C° 0 mm 2 mps 679 mmHg 66%
    23:00 +3°C° 0 mm 2 mps 679 mmHg 67%

    Day after tomorrow, 9 December, Monday

    Time Temperature Precipitation Wind Pressure Humidity
    00:00 +3°C° 0 mm 2 mps 678 mmHg 67%
    01:00 +4°C° 0 mm 2 mps 678 mmHg 68%
    02:00 +3°C° 0 mm 2 mps 678 mmHg 71%
    03:00 +4°C° 0 mm 1 mps 677 mmHg 74%
    04:00 +4°C° 0 mm 1 mps 677 mmHg 77%
    05:00 +3°C° 0.4 mm 1 mps 677 mmHg 81%
    06:00 +3°C° 0.4 mm 1 mps 677 mmHg 85%
    07:00 +3°C° 0.4 mm 1 mps 676 mmHg 89%
    08:00 +3°C° 0.6 mm 1 mps 676 mmHg 89%
    09:00 +4°C° 0.6 mm 1 mps 676 mmHg 89%
    10:00 +4°C° 0.6 mm 1 mps 676 mmHg 89%
    11:00 +5°C° 0.1 mm 1 mps 676 mmHg 85%
    12:00 +4°C° 0.1 mm 0 mps 675 mmHg 81%
    13:00 +5°C° 0.1 mm 0 mps 675 mmHg 77%
    14:00 +4°C° 0 mm 0 mps 674 mmHg 81%
    15:00 +3°C° 0 mm 0 mps 674 mmHg 86%
    16:00 +2°C° 0 mm 0 mps 673 mmHg 90%
    17:00 +1°C° 0.1 mm 0 mps 673 mmHg 89%
    18:00 +2°C° 0.1 mm 1 mps 673 mmHg 88%
    19:00 +1°C° 0.1 mm 1 mps 674 mmHg 87%
    20:00 +1°C° 0.1 mm 1 mps 674 mmHg 87%
    21:00 +1°C° 0.1 mm 1 mps 674 mmHg 87%
    22:00 +1°C° 0.1 mm 1 mps 675 mmHg 86%
    23:00 +1°C° 0.5 mm 1 mps 675 mmHg 89%

    10 December, Tuesday

    Time Temperature Precipitation Wind Pressure Humidity
    00:00 +1°C° 0.5 mm 2 mps 676 mmHg 91%
    01:00 +1°C° 0.5 mm 2 mps 676 mmHg 94%
    02:00 +1°C° 0.9 mm 2 mps 677 mmHg 94%
    03:00 +1°C° 0.9 mm 2 mps 678 mmHg 94%
    04:00 +1°C° 0.9 mm 2 mps 679 mmHg 95%
    05:00 -1°C° 0.3 mm 2 mps 679 mmHg 94%
    06:00 -2°C° 0.3 mm 2 mps 680 mmHg 94%
    07:00 -3°C° 0.3 mm 2 mps 681 mmHg 94%
    08:00 -2°C° 0.5 mm 2 mps 682 mmHg 93%
    09:00 -2°C° 0.5 mm 2 mps 683 mmHg 93%
    10:00 -1°C° 0.5 mm 3 mps 683 mmHg 93%
    11:00 -1°C° 0.4 mm 3 mps 684 mmHg 88%
    12:00 -1°C° 0.4 mm 3 mps 684 mmHg 84%
    13:00 -1°C° 0.4 mm 3 mps 684 mmHg 80%
    14:00 -3°C° 0.1 mm 2 mps 685 mmHg 83%
    15:00 -4°C° 0.1 mm 2 mps 685 mmHg 87%
    16:00 -5°C° 0.1 mm 2 mps 685 mmHg 90%
    17:00 -5°C° 0 mm 2 mps 686 mmHg 91%
    18:00 -6°C° 0 mm 2 mps 686 mmHg 92%
    19:00 -4°C° 0 mm 1 mps 687 mmHg 93%
    20:00 -7°C° 0 mm 2 mps 687 mmHg 92%
    21:00 -7°C° 0 mm 2 mps 687 mmHg 90%
    22:00 -8°C° 0 mm 2 mps 687 mmHg 89%
    23:00 -8°C° 0 mm 2 mps 687 mmHg 85%

    11 December, Wednesday

    Time Temperature Precipitation Wind Pressure Humidity
    00:00 -8°C° 0 mm 2 mps 686 mmHg 80%
    01:00 -8°C° 0 mm 2 mps 686 mmHg 76%
    02:00 -7°C° 0 mm 2 mps 686 mmHg 69%
    03:00 -7°C° 0 mm 2 mps 685 mmHg 63%
    04:00 -6°C° 0 mm 2 mps 685 mmHg 57%
    05:00 -6°C° 0 mm 2 mps 684 mmHg 52%
    06:00 -5°C° 0 mm 2 mps 684 mmHg 46%
    07:00 -5°C° 0 mm 2 mps 684 mmHg 40%
    08:00 -1°C° 0 mm 1 mps 684 mmHg 42%
    09:00 +1°C° 0 mm 1 mps 684 mmHg 43%
    10:00 +3°C° 0 mm 1 mps 684 mmHg 44%
    11:00 +4°C° 0 mm 1 mps 684 mmHg 50%
    12:00 +6°C° 0 mm 1 mps 683 mmHg 56%
    13:00 +7°C° 0 mm 1 mps 683 mmHg 61%
    14:00 +5°C° 0 mm 1 mps 682 mmHg 60%
    15:00 +3°C° 0 mm 1 mps 682 mmHg 59%
    16:00 +2°C° 0 mm 1 mps 681 mmHg 58%
    17:00 +1°C° 0 mm 1 mps 681 mmHg 55%
    18:00 0°C° 0 mm 1 mps 681 mmHg 52%
    19:00 -1°C° 0 mm 1 mps 681 mmHg 49%
    20:00 -1°C° 0 mm 1 mps 681 mmHg 49%
    21:00 -1°C° 0 mm 1 mps 681 mmHg 50%
    22:00 -2°C° 0 mm 1 mps 681 mmHg 50%
    23:00 -2°C° 0 mm 1 mps 680 mmHg 51%

    12 December, Thursday

    Time Temperature Precipitation Wind Pressure Humidity
    00:00 -2°C° 0 mm 1 mps 680 mmHg 52%
    01:00 -2°C° 0 mm 1 mps 680 mmHg 53%
    02:00 -2°C° 0.1 mm 1 mps 679 mmHg 59%
    03:00 -2°C° 0.1 mm 1 mps 679 mmHg 65%
    04:00 -2°C° 0.1 mm 1 mps 679 mmHg 71%
    05:00 -1°C° 0.3 mm 1 mps 679 mmHg 79%
    06:00 -1°C° 0.3 mm 1 mps 679 mmHg 87%
    07:00 -1°C° 0.3 mm 1 mps 679 mmHg 95%
    08:00 0°C° 0.3 mm 1 mps 679 mmHg 94%
    09:00 0°C° 0.3 mm 1 mps 679 mmHg 94%
    10:00 +1°C° 0.3 mm 1 mps 679 mmHg 93%
    11:00 +1°C° 0.1 mm 1 mps 679 mmHg 91%
    12:00 +2°C° 0.1 mm 1 mps 678 mmHg 88%
    13:00 +2°C° 0.1 mm 1 mps 678 mmHg 86%
    14:00 +1°C° 0 mm 1 mps 677 mmHg 89%
    15:00 0°C° 0 mm 1 mps 677 mmHg 91%
    16:00 -2°C° 0 mm 0 mps 676 mmHg 94%
    17:00 -2°C° 0 mm 1 mps 676 mmHg 93%
    18:00 -3°C° 0 mm 1 mps 676 mmHg 91%
    19:00 -3°C° 0 mm 1 mps 675 mmHg 90%
    20:00 -4°C° 0 mm 1 mps 674 mmHg 86%
    21:00 -6°C° 0 mm 2 mps 674 mmHg 82%
    22:00 -6°C° 0 mm 2 mps 673 mmHg 79%
    23:00 -6°C° 0 mm 2 mps 672 mmHg 80%
    Show more